Waarnemingen

Advertentie
Mijn weer
Torup A, Zweden (2618): temperatuur & dauwpunt: 11.08.2018 19:00:00 - 17.08.2018 19:00:00 (CEST)Torup A, Zweden (2618): windsnelheid & windstoten: 11.08.2018 19:00:00 - 17.08.2018 19:00:00 (CEST)Torup A, Zweden (2618): windrichting: 11.08.2018 19:00:00 - 17.08.2018 19:00:00 (CEST)Torup A, Zweden (2618): luchtdruk: 11.08.2018 19:00:00 - 17.08.2018 19:00:00 (CEST)Torup A, Zweden (2618): zicht: 11.08.2018 19:00:00 - 17.08.2018 19:00:00 (CEST)Torup A, Zweden (2618): neerslag: 11.08.2018 19:00:00 - 17.08.2018 19:00:00 (CEST)
Datum & Tijd tt [°C] td [°C] ff [km/u] ff [kn] fx [km/u] fx [kn] dd ppp [hPa] vv [km] rr [mm]
17.08.2018 19:00:00 19,1 10,4 4 2 23 12 ZW 1015,4 50 0,0
17.08.2018 18:00:00 18,5 9,8 11 6 20 11 W 1015,2 45 0,0
17.08.2018 17:00:00 18,5 10,8 8 4 19 11 WZW 1015,5 45 0,0
17.08.2018 16:00:00 17,1 13,6 6 3 24 13 ZZW 1016,0 31 0,1
17.08.2018 15:00:00 17,7 11,5 11 6 28 15 W 1015,8 46 0,0
17.08.2018 14:00:00 20,4 11,1 11 6 28 15 WZW 1015,0 50 0,0
17.08.2018 13:00:00 21,1 11,1 10 5 31 17 ZW 1015,1 46 0,0
17.08.2018 12:00:00 22,0 15,1 9 5 31 17 WZW 1014,9 41 0,0
17.08.2018 11:00:00 21,2 13,6 15 8 33 18 WZW 1014,7 44 0,0
17.08.2018 10:00:00 20,2 14,1 19 10 33 18 W 1014,4 47 0,0
17.08.2018 09:00:00 20,1 15,7 14 7 22 12 ZW 1013,9 34 0,0
17.08.2018 08:00:00 17,4 15,7 5 3 12 6 ZW 1013,8 15 0,0
17.08.2018 07:00:00 16,0 15,5 5 3 12 6 Z 1013,8 8 0,0
17.08.2018 06:00:00 15,5 14,9 5 3 11 6 ZZO 1013,7 8 0,0
17.08.2018 05:00:00 15,6 14,8 6 3 13 7 ZZO 1013,4 12 0,0
17.08.2018 04:00:00 16,3 14,8 5 3 13 7 ZZW 1013,7 21 0,0
17.08.2018 03:00:00 16,2 14,7 8 4 15 8 ZZO 1013,7 24 0,0
17.08.2018 02:00:00 17,3 14,9 7 4 15 8 Z 1013,9 37 0,0
17.08.2018 01:00:00 17,7 15,1 5 3 12 6 Z 1014,1 30 0,0
17.08.2018 00:00:00 18,2 14,9 5 3 19 11 ZZO 1014,1 34 0,0
16.08.2018 23:00:00 18,8 15,3 5 3 19 11 ZZW 1013,9 41 0,0
16.08.2018 22:00:00 19,5 14,3 8 4 18 10 ZW 1013,7 50 0,0
16.08.2018 21:00:00 20,2 13,4 7 4 25 13 Z 1013,3 50 0,0
16.08.2018 20:00:00 21,3 13,5 10 6 34 18 Z 1013,2 35 0,0
16.08.2018 19:00:00 22,2 13,5 14 8 36 20 Z 1013,4 33 0,0
16.08.2018 18:00:00 23,3 14,3 15 8 36 20 ZZW 1013,3 25 0,0
16.08.2018 17:00:00 22,7 14,0 21 11 36 20 ZZW 1013,7 22 0,0
16.08.2018 16:00:00 23,4 14,1 18 10 35 19 ZZW 1013,9 26 0,0
16.08.2018 15:00:00 23,3 15,6 14 8 28 15 ZZW 1014,2 23 0,0
16.08.2018 14:00:00 21,1 17,3 8 5 21 11 Z 1014,7 14 0,0
16.08.2018 13:00:00 18,7 16,8 8 4 25 14 Z 1015,3 8 0,0
16.08.2018 12:00:00 19,2 16,1 10 5 29 16 ZZW 1015,3 14 0,0
16.08.2018 11:00:00 19,6 15,9 13 7 29 16 ZZW 1015,4 13 0,0
16.08.2018 10:00:00 18,8 16,4 11 6 21 11 Z 1015,5 32 0,0
16.08.2018 09:00:00 17,2 16,7 8 4 18 10 Z 1015,8 9 0,0
16.08.2018 08:00:00 17,0 16,7 8 4 18 10 Z 1016,0 6 0,0
16.08.2018 07:00:00 16,4 16,2 3 2 10 5 Z 1016,0 4,9 0,0
16.08.2018 06:00:00 16,2 16,0 5 3 11 6 Z 1015,9 6 0,0
16.08.2018 05:00:00 16,0 15,7 6 4 12 7 ZZW 1016,0 7 0,0
16.08.2018 04:00:00 16,1 15,6 6 4 16 9 Z 1015,8 12 0,0
16.08.2018 03:00:00 15,7 14,9 7 4 16 9 Z 1015,7 18 0,0
16.08.2018 02:00:00 15,8 14,8 6 3 13 7 Z 1015,8 43 0,0
16.08.2018 01:00:00 16,2 15,4 6 4 11 6 Z 1016,0 28 0,0
16.08.2018 00:00:00 15,8 15,0 4 2 8 5 Z 1016,0 29 0,0
15.08.2018 23:00:00 16,1 15,3 3 2 10 5 Z 1016,0 33 0,0
15.08.2018 22:00:00 15,5 14,4 5 3 11 6 ZZW 1016,0 32 0,0
15.08.2018 21:00:00 16,8 14,6 6 4 13 7 Z 1015,7 50 0,0
15.08.2018 20:00:00 18,4 14,7 6 3 21 11 ZZW 1015,3 50 0,0
15.08.2018 19:00:00 18,7 13,8 9 5 27 15 WZW 1015,2 50 0,0
15.08.2018 18:00:00 19,7 13,9 9 5 27 15 ZW 1015,0 49 0,0
15.08.2018 17:00:00 20,2 13,4 9 5 23 13 ZW 1014,8 50 0,0
15.08.2018 16:00:00 21,4 13,6 11 6 32 18 ZW 1014,5 47 0,0
15.08.2018 15:00:00 19,5 13,7 11 6 36 19 W 1014,6 47 0,0
15.08.2018 14:00:00 21,2 13,1 18 10 36 19 W 1014,1 44 0,0
15.08.2018 13:00:00 21,2 11,5 15 8 32 17 W 1013,6 48 0,0
15.08.2018 12:00:00 20,7 13,2 18 10 32 17 W 1013,2 49 0,0
15.08.2018 11:00:00 19,0 14,3 11 6 26 14 W 1013,1 35 0,0
15.08.2018 10:00:00 19,1 15,2 12 6 29 15 W 1012,5 49 0,0
15.08.2018 09:00:00 17,4 14,5 13 7 29 15 W 1012,2 47 0,0
15.08.2018 08:00:00 16,0 14,7 14 7 25 14 WNW 1011,8 37 0,0
15.08.2018 07:00:00 14,7 14,4 8 5 22 12 W 1011,2 21 0,0
15.08.2018 06:00:00 15,1 14,8 9 5 22 12 W 1010,4 14 0,0
15.08.2018 05:00:00 14,9 14,7 9 5 16 9 W 1010,1 13 0,0
15.08.2018 04:00:00 14,5 14,3 3 1 13 7 ZZW 1010,0 7 0,0
15.08.2018 03:00:00 14,7 14,4 3 1 13 7 W 1009,6 12 0,0
15.08.2018 02:00:00 14,6 14,3 6 4 18 10 W 1009,5 15 0,0
15.08.2018 01:00:00 14,6 14,1 4 2 18 10 NW 1009,1 6 0,0
15.08.2018 00:00:00 15,5 15,0 7 4 18 10 WNW 1008,7 27 0,0
14.08.2018 23:00:00 15,7 15,4 7 4 21 12 WNW 1008,2 14 0,0
14.08.2018 22:00:00 16,5 16,2 11 6 22 12 WNW 1008,0 14 0,0
14.08.2018 21:00:00 16,8 16,3 5 3 22 12 NW 1007,1 14 1,1
14.08.2018 20:00:00 17,2 16,7 6 3 13 7 WNW 1006,4 22 0,0
14.08.2018 19:00:00 17,4 16,1 6 4 13 7 WNW 1005,8 50 0,0
14.08.2018 18:00:00 18,2 17,2 5 3 19 11 N 1005,5 33 0,8
14.08.2018 17:00:00 18,2 16,9 7 4 19 11 W 1005,4 41 0,1
14.08.2018 16:00:00 20,2 17,6 9 5 17 9 WZW 1005,1 40 0,1
14.08.2018 15:00:00 20,8 17,0 4 2 17 9 ZW 1004,9 29 0,0
14.08.2018 14:00:00 19,4 17,0 6 3 17 9 O 1005,0 41 0,0
14.08.2018 13:00:00 18,2 17,6 6 3 17 9 O 1005,1 20 0,1
14.08.2018 12:00:00 16,8 16,5 6 3 20 11 ONO 1005,2 13 0,7
14.08.2018 11:00:00 16,5 16,2 10 5 20 11 ONO 1005,3 11 3,3
14.08.2018 10:00:00 16,4 15,8 11 6 20 11 ONO 1005,3 24 -
14.08.2018 09:00:00 15,9 15,6 11 6 20 11 ONO 1005,6 21 0,0
14.08.2018 08:00:00 15,0 14,7 9 5 19 10 ONO 1005,9 18 0,0
14.08.2018 07:00:00 14,7 14,5 11 6 16 9 ONO 1006,0 15 0,0
14.08.2018 06:00:00 14,5 14,3 6 4 13 7 NO 1006,4 10 0,5
14.08.2018 05:00:00 14,4 14,2 5 3 11 6 NO 1006,9 11 0,3
14.08.2018 04:00:00 14,5 14,3 5 3 11 6 ONO 1007,3 8 0,1
14.08.2018 03:00:00 14,5 14,3 5 3 11 6 O 1007,6 6 0,1
14.08.2018 02:00:00 14,6 14,4 6 3 14 7 O 1008,0 6 1,1
14.08.2018 01:00:00 14,8 14,6 5 3 14 7 OZO 1008,3 6 0,5
14.08.2018 00:00:00 14,7 14,5 4 2 13 7 ZO 1008,3 6 0,6
13.08.2018 23:00:00 14,6 14,3 5 3 13 7 OZO 1008,4 6 0,1
13.08.2018 22:00:00 14,5 14,2 6 4 17 9 ZO 1008,6 12 0,0
13.08.2018 21:00:00 14,4 14,1 6 3 17 9 O 1008,5 17 0,0
13.08.2018 20:00:00 14,5 14,0 7 4 16 9 OZO 1008,6 28 0,0
13.08.2018 19:00:00 14,5 14,0 6 4 18 10 O 1008,8 37 0,0
13.08.2018 18:00:00 14,3 13,8 10 5 18 10 O 1009,1 42 0,1
13.08.2018 17:00:00 14,1 13,8 9 5 16 9 O 1009,6 5 0,2
13.08.2018 16:00:00 14,1 13,6 9 5 16 9 O 1009,7 4,4 0,3
13.08.2018 15:00:00 13,9 13,4 8 5 23 12 O 1010,0 5 0,4
13.08.2018 14:00:00 13,7 12,4 10 5 23 12 O 1010,3 5 0,1
13.08.2018 13:00:00 15,1 11,5 10 5 22 12 OZO 1010,1 25 0,0
13.08.2018 12:00:00 15,7 10,9 11 6 22 12 OZO 1010,1 50 0,0
13.08.2018 11:00:00 15,4 10,0 11 6 21 11 O 1010,2 50 0,0
13.08.2018 10:00:00 14,1 11,3 10 5 18 10 ONO 1010,2 46 0,0
13.08.2018 09:00:00 12,2 12,0 6 3 11 6 NO 1010,4 47 0,0
13.08.2018 08:00:00 10,6 10,4 4 2 8 4 NO 1010,6 1,4 0,0
13.08.2018 07:00:00 9,7 9,6 4 2 8 4 NO 1010,4 0,3 0,0
13.08.2018 06:00:00 9,6 9,5 5 3 8 4 NO 1010,4 0,4 0,0
13.08.2018 05:00:00 9,1 9,0 4 2 8 4 NNO 1010,5 0,3 0,0
13.08.2018 04:00:00 9,8 9,5 3 1 9 5 ONO 1010,7 0,2 0,0
13.08.2018 03:00:00 10,5 10,0 0 0 10 5 N 1010,7 19 0,0
13.08.2018 02:00:00 11,1 10,5 5 3 10 5 Z 1010,9 31 0,0
13.08.2018 01:00:00 11,7 10,9 7 4 10 5 ZZW 1011,3 50 0,0
13.08.2018 00:00:00 12,1 11,0 3 1 8 5 Z 1011,5 45 0,0
12.08.2018 23:00:00 12,4 10,8 4 2 8 5 Z 1011,5 50 0,0
12.08.2018 22:00:00 13,2 11,6 3 2 24 13 ZW 1011,7 50 0,0
12.08.2018 21:00:00 13,9 11,2 6 4 24 13 WZW 1011,6 50 0,0
12.08.2018 20:00:00 14,5 11,3 9 5 24 13 WZW 1011,5 50 0,0
12.08.2018 19:00:00 15,3 11,3 9 5 24 13 W 1011,5 50 0,0
12.08.2018 18:00:00 15,5 11,5 10 5 27 14 WZW 1011,6 50 0,0
12.08.2018 17:00:00 13,8 10,0 11 6 41 22 W 1012,0 38 0,1
12.08.2018 16:00:00 16,4 8,9 10 6 42 23 WZW 1011,9 46 0,0
12.08.2018 15:00:00 17,6 7,3 22 12 49 26 W 1011,8 47 0,0
12.08.2018 14:00:00 18,7 8,4 22 12 49 26 W 1011,5 42 0,0
12.08.2018 13:00:00 16,0 9,7 17 9 52 28 WZW 1011,7 47 0,0
12.08.2018 12:00:00 18,1 9,2 24 13 52 28 WZW 1011,3 33 0,0
12.08.2018 11:00:00 15,9 8,1 20 11 50 27 W 1011,3 44 0,0
12.08.2018 10:00:00 16,2 8,7 15 8 50 27 W 1011,1 50 0,0
12.08.2018 09:00:00 15,5 9,4 18 10 45 25 W 1011,0 40 0,0
12.08.2018 08:00:00 14,2 10,0 14 8 34 19 W 1010,7 32 0,0
12.08.2018 07:00:00 12,8 10,3 13 7 34 18 W 1010,6 37 0,0
12.08.2018 06:00:00 11,7 10,4 12 6 32 17 WZW 1010,4 33 0,0
12.08.2018 05:00:00 12,2 11,3 13 7 29 16 W 1010,3 19 0,0
12.08.2018 04:00:00 11,1 10,5 6 4 29 16 W 1010,3 26 0,0
12.08.2018 03:00:00 11,1 9,8 11 6 29 16 W 1010,0 18 0,3
12.08.2018 02:00:00 11,0 10,5 7 4 30 16 W 1010,1 34 0,0
12.08.2018 01:00:00 11,6 11,0 8 4 30 16 WNW 1009,9 44 1,7
12.08.2018 00:00:00 11,9 11,4 16 8 29 16 W 1009,7 12 0,7
11.08.2018 23:00:00 11,5 10,9 12 7 27 15 WZW 1009,6 8 0,4
11.08.2018 22:00:00 11,6 10,7 5 3 15 8 ZZO 1009,7 35 0,1
11.08.2018 21:00:00 12,9 12,0 8 4 15 8 ZO 1009,8 32 0,6
11.08.2018 20:00:00 13,3 12,5 6 3 11 6 ZO 1009,8 40 0,1
11.08.2018 19:00:00 13,4 11,5 5 3 26 14 OZO 1010,2 32 0,1

tt = temperatuur
td = dauwpunt
ff = windsnelheid
fx = windstoten
dd = windrichting
ppp = luchtdruk
vv = zicht
rr = neerslag

Weerstations in de omgeving